Location: Newark
(47.3150°N, 5.1150°E)
Time: 11:20:37
(UTC+00:00)

AO-7 - Pass Details

Date: 20 December 2019
Orbit: 1440 x 1459 km, 101.8° (Epoch: 17 January)

Event Time Altitude Azimuth Distance (km) Brightness Sun altitude
Rises 16:13:39 0° 215° (SW) 4,522 ? -4.1°
Reaches altitude 10° 16:17:44 10° 234° (SW) 3,551 ? -4.7°
Maximum altitude 16:22:48 17° 273° (W) 3,020 ? -5.4°
Drops below altitude 10° 16:27:56 10° 312° (NW) 3,571 ? -6.2°
Sets 16:32:06 0° 331° (NNW) 4,558 ? -6.8°
